[[{"header":{"parameterUnit":"m.s-1","parameterCategory":1,"la1":30.2991,"la2":30.254,"lo1":-89.0895,"lo2":-89.0444,"dy":0.0017,"dx":0.0017,"nx":28,"ny":28,"refTime":"2024-06-03T21:00:00:Z","depth":0,"parameterNumber":2,"parameterNumberName":"U-component_of_WINDS"},"data":[0,0,0,0,0,0,0,0,0,0,0,0,0,0,0,0,0,0,0,0,0,0,0,0,0,0,0,0,0,0,0,0,0,0,0,0,0,0,0,0,0,0,0,0,0,0,0,0,0,0,0,0,0,0,0,0,0,0,-1.5985,-1.5987,0,-1.6141,-1.6143,-1.6145,-1.6196,-1.6195,-1.6194,-1.6194,-1.6358,-1.6362,-1.6367,0,0,0,0,0,0,0,0,0,0,0,0,0,-1.5738,-1.5742,-1.5985,-1.5987,-1.5989,-1.6141,-1.6143,-1.6145,-1.6196,-1.6195,-1.6194,-1.6193,-1.6356,-1.6362,-1.6368,0,0,0,0,0,0,0,0,0,0,0,0,0,-1.5864,-1.5743,-1.5985,-1.6033,-1.6039,-1.614,-1.6143,-1.6146,-1.6196,-1.6195,-1.6194,-1.6193,-1.6354,-1.6361,-1.6369,-1.6436,0,0,-1.6392,-1.6395,0,0,0,0,0,0,0,0,-1.5857,-1.5874,-1.6024,-1.603,-1.6036,-1.6148,-1.6116,-1.6243,-1.6196,-1.6136,-1.6194,-1.6193,-1.6289,-1.6302,-1.6333,-1.6443,-1.645,-1.6392,-1.6397,-1.64,-1.6402,0,0,0,0,0,0,0,-1.5848,-1.5867,-1.6047,-1.6026,-1.6034,-1.6048,-1.6065,-1.614,-1.6217,-1.6142,-1.6146,-1.6163,-1.6292,-1.6326,-1.6338,-1.6453,-1.6392,-1.6399,-1.6403,-1.6406,-1.6628,-1.6629,0,0,0,0,0,0,-1.5831,-1.5859,-1.6042,-1.6052,-1.5942,-1.6053,-1.6072,-1.6113,-1.6216,-1.6231,-1.6164,-1.6165,-1.6314,-1.6329,-1.6343,-1.6429,-1.64,-1.6407,-1.6411,-1.6626,-1.6628,-1.6629,0,0,0,0,0,0,-1.5825,-1.5847,-1.6036,-1.5957,-1.5982,-1.6059,-1.6104,-1.6117,-1.6151,-1.6233,-1.6247,-1.6184,-1.6313,-1.6333,-1.6412,-1.6436,-1.641,-1.6417,-1.6625,-1.6627,-1.6629,-1.6601,0,0,0,0,0,0,-1.5818,-1.5844,-1.5869,-1.5957,-1.5986,-1.61,-1.6106,-1.6121,-1.6163,-1.6166,-1.6255,-1.6269,-1.6314,-1.6401,-1.642,-1.6445,-1.6423,-1.6623,-1.6626,-1.6628,-1.66,-1.6601,-1.6603,0,0,0,0,0,-1.5809,-1.5856,-1.587,-1.5892,-1.6018,-1.6101,-1.6118,-1.6168,-1.6164,-1.6191,-1.6244,-1.6266,-1.643,-1.6409,-1.643,-1.6459,-1.6622,-1.6625,-1.6628,-1.6599,-1.6601,-1.6603,0,0,0,0,0,0,-1.5769,-1.5868,-1.5885,-1.5961,-1.6022,-1.611,-1.6144,-1.6168,-1.6233,-1.6233,-1.6293,-1.6313,-1.6388,-1.6432,-1.6406,-1.653,-1.6527,-1.6535,-1.6498,-1.6501,-1.6502,-1.649,-1.6429,0,0,0,0,0,-1.5769,-1.5827,-1.5911,-1.597,-1.6,-1.6067,-1.6105,-1.6138,-1.6204,-1.6231,-1.629,-1.6355,-1.6421,-1.6464,-1.6529,-1.6607,-1.6628,-1.6638,-1.6639,-1.664,-1.6645,-1.6691,-1.6696,-1.664,-1.664,-1.6639,0,0,-1.577,-1.5831,-1.5864,-1.5964,-1.6015,-1.6075,-1.6088,-1.6151,-1.6197,-1.6241,-1.6319,-1.6365,-1.6442,-1.6521,-1.6559,-1.656,-1.6666,-1.6644,-1.6644,-1.6649,-1.6695,-1.67,-1.6705,-1.6642,-1.6641,-1.6641,0,0,-1.5802,-1.5854,-1.5909,-1.596,-1.6038,-1.6082,-1.6095,-1.618,-1.6212,-1.6291,-1.6326,-1.6382,-1.6495,-1.6548,-1.659,-1.6645,-1.6668,-1.6665,-1.6673,-1.6716,-1.6721,-1.6725,-1.6745,-1.6751,-1.6671,-1.667,-1.667,0,-1.5794,-1.5884,-1.5935,-1.5996,-1.6039,-1.6081,-1.6139,-1.6187,-1.6282,-1.6312,-1.6312,-1.6455,-1.651,-1.6602,-1.6615,-1.6648,-1.6666,-1.6654,-1.6716,-1.6721,-1.6725,-1.6745,-1.6752,-1.6669,-1.667,-1.667,-1.667,0,-1.587,-1.5932,-1.5968,-1.6057,-1.6105,-1.6164,-1.6226,-1.6269,-1.6298,-1.6343,-1.6425,-1.6492,-1.6573,-1.6597,-1.6627,-1.6695,-1.6693,-1.6704,-1.6702,-1.6729,-1.6748,-1.6756,-1.6668,-1.6668,-1.6669,-1.6669,0,0,-1.5879,-1.5997,-1.6009,-1.6051,-1.614,-1.6191,-1.6253,-1.633,-1.6366,-1.6431,-1.6486,-1.6581,-1.6591,-1.6639,-1.6676,-1.6714,-1.6754,-1.672,-1.6723,-1.6724,-1.6833,-1.6824,-1.6832,-1.677,-1.6772,-1.6773,-1.6827,0,-1.5922,-1.6032,-1.6081,-1.617,-1.6229,-1.6271,-1.6326,-1.6388,-1.6432,-1.6491,-1.6541,-1.6607,-1.6616,-1.6645,-1.6685,-1.674,-1.6776,-1.6737,-1.6822,-1.6825,-1.68,-1.6842,-1.6832,-1.688,-1.6835,-1.6836,-1.6837,0,-1.5987,-1.6051,-1.6145,-1.6228,-1.6255,-1.6303,-1.6378,-1.6433,-1.6505,-1.6535,-1.6589,-1.6624,-1.6693,-1.6688,-1.6784,-1.6756,-1.6795,-1.6828,-1.6831,-1.684,-1.6832,-1.6852,-1.6896,-1.6903,-1.685,-1.6849,-1.6848,0,-1.5984,-1.6094,-1.6165,-1.62,-1.6299,-1.6331,-1.6374,-1.6445,-1.6489,-1.6556,-1.6586,-1.6661,-1.6701,-1.6759,-1.6815,-1.6806,-1.6906,-1.6906,-1.6934,-1.6933,-1.6952,-1.695,-1.7002,-1.6978,-1.6978,-1.6978,-1.6978,0,-1.6026,-1.6082,-1.6165,-1.6208,-1.6273,-1.633,-1.6394,-1.644,-1.6503,-1.6558,-1.6601,-1.6651,-1.6722,-1.6782,-1.6826,-1.69,-1.6918,-1.6946,-1.6956,-1.6941,-1.6938,-1.6966,-1.6964,-1.698,-1.698,-1.6979,-1.6979,0,-1.6033,-1.6091,-1.6171,-1.6258,-1.6282,-1.6326,-1.6402,-1.6447,-1.6494,-1.6563,-1.6583,-1.6657,-1.6731,-1.6792,-1.6889,-1.6919,-1.6996,-1.7009,-1.697,-1.6976,-1.7001,-1.6998,-1.7073,-1.7086,-1.7053,-1.7053,-1.7053,0,-1.6056,-1.61,-1.6192,-1.6231,-1.6273,-1.6336,-1.6381,-1.644,-1.6485,-1.6571,-1.6606,-1.6683,-1.6747,-1.6863,-1.6927,-1.7002,-1.7017,-1.7038,-1.7028,-1.7012,-1.7017,-1.7013,-1.7018,-1.7038,-1.7038,-1.7038,-1.7039,0,-1.609,-1.6117,-1.6179,-1.6252,-1.6304,-1.6364,-1.6426,-1.6456,-1.6527,-1.6576,-1.6651,-1.6701,-1.68,-1.6875,-1.6957,-1.7004,-1.7034,-1.7041,-1.7052,-1.7036,-1.7012,-1.7025,-1.6972,-1.7039,-1.7039,-1.7039,-1.7039,-1.7039,-1.6106,-1.6147,-1.6219,-1.6287,-1.6339,-1.6396,-1.6443,-1.6496,-1.6559,-1.6643,-1.6675,-1.6752,-1.6825,-1.6938,-1.6986,-1.7048,-1.7052,-1.7067,-1.7071,-1.7073,-1.7071,-1.7003,-1.7064,-1.7064,-1.7064,-1.7064,-1.7064,0,-1.6143,-1.6191,-1.6253,-1.6337,-1.6391,-1.6414,-1.6484,-1.6528,-1.6594,-1.666,-1.6722,-1.6809,-1.6883,-1.6954,-1.7032,-1.7068,-1.7084,-1.7087,-1.7084,-1.7095,-1.7064,-1.7046,-1.7073,-1.7073,-1.7073,-1.7073,-1.7073,-1.7073,-1.6168,-1.6239,-1.6274,-1.6372,-1.6421,-1.6495,-1.6534,-1.6587,-1.6639,-1.6734,-1.6795,-1.684,-1.6909,-1.6992,-1.7062,-1.7081,-1.7108,-1.7107,-1.713,-1.7099,-1.7097,-1.7095,-1.7079,-1.7113,-1.7113,-1.7156,-1.7157,-1.7157]},{"header":{"parameterUnit":"m.s-1","parameterCategory":1,"la1":30.2991,"la2":30.254,"lo1":-89.0895,"lo2":-89.0444,"dy":0.0017,"dx":0.0017,"nx":28,"ny":28,"refTime":"2024-06-03T21:00:00:Z","depth":0,"parameterNumber":3,"parameterNumberName":"V-component_of_WINDS"},"data":[0,0,0,0,0,0,0,0,0,0,0,0,0,0,0,0,0,0,0,0,0,0,0,0,0,0,0,0,0,0,0,0,0,0,0,0,0,0,0,0,0,0,0,0,0,0,0,0,0,0,0,0,0,0,0,0,0,0,2.5077,2.5077,0,2.5081,2.5081,2.5082,2.5086,2.5086,2.5086,2.5086,2.5091,2.5091,2.5091,0,0,0,0,0,0,0,0,0,0,0,0,0,2.5073,2.5073,2.5077,2.5077,2.5077,2.5081,2.5082,2.5082,2.5086,2.5086,2.5086,2.5086,2.5091,2.5091,2.5091,0,0,0,0,0,0,0,0,0,0,0,0,0,2.5076,2.5073,2.5077,2.508,2.508,2.5081,2.5082,2.5082,2.5086,2.5086,2.5086,2.5086,2.509,2.5091,2.5091,2.509,0,0,2.5091,2.5091,0,0,0,0,0,0,0,0,2.5076,2.5076,2.5079,2.508,2.508,2.5083,2.5082,2.5084,2.5086,2.5084,2.5086,2.5086,2.5088,2.5088,2.5089,2.509,2.509,2.5091,2.5091,2.5091,2.5091,0,0,0,0,0,0,0,2.5075,2.5076,2.5079,2.5079,2.508,2.5081,2.5082,2.5082,2.5085,2.5084,2.5084,2.5085,2.5088,2.5089,2.5089,2.509,2.5091,2.5091,2.5091,2.5091,2.5091,2.5091,0,0,0,0,0,0,2.5075,2.5076,2.5079,2.5079,2.5078,2.5081,2.5082,2.5082,2.5085,2.5086,2.5085,2.5085,2.5089,2.5089,2.5089,2.5088,2.5091,2.5091,2.5091,2.5091,2.5091,2.5091,0,0,0,0,0,0,2.5075,2.5075,2.5079,2.5077,2.5078,2.5081,2.5082,2.5082,2.5083,2.5086,2.5086,2.5085,2.5089,2.5089,2.509,2.5089,2.5091,2.5091,2.5091,2.5091,2.5091,2.5086,0,0,0,0,0,0,2.5075,2.5075,2.5074,2.5077,2.5078,2.5079,2.5081,2.5082,2.5083,2.5083,2.5086,2.5087,2.5089,2.5089,2.509,2.5089,2.5091,2.5091,2.5091,2.5091,2.5087,2.5086,2.5086,0,0,0,0,0,2.5074,2.5073,2.5074,2.5075,2.5077,2.5079,2.5079,2.5081,2.5083,2.5082,2.5084,2.5087,2.5089,2.5089,2.509,2.5089,2.5091,2.5091,2.5091,2.5087,2.5086,2.5086,0,0,0,0,0,0,2.507,2.5074,2.5075,2.5075,2.5076,2.5079,2.5079,2.5081,2.5082,2.5082,2.5085,2.5086,2.5086,2.5088,2.5088,2.5088,2.509,2.509,2.5087,2.5087,2.5086,2.5086,2.5091,0,0,0,0,0,2.5069,2.5069,2.5073,2.5072,2.5073,2.5076,2.5076,2.5078,2.508,2.5081,2.5083,2.5084,2.5086,2.5086,2.5087,2.5087,2.5088,2.5087,2.5086,2.5086,2.5086,2.5086,2.5085,2.509,2.509,2.509,0,0,2.5067,2.5069,2.5069,2.5071,2.5073,2.5073,2.5076,2.5077,2.5077,2.5081,2.5081,2.5083,2.5085,2.5085,2.5085,2.5086,2.5085,2.5086,2.5085,2.5085,2.5086,2.5085,2.5085,2.509,2.509,2.509,0,0,2.5063,2.5065,2.5064,2.5066,2.5068,2.507,2.507,2.5073,2.5074,2.5075,2.5078,2.5078,2.508,2.5082,2.5083,2.508,2.5082,2.5081,2.5078,2.5078,2.5078,2.5078,2.5077,2.5076,2.508,2.508,2.508,0,2.506,2.5061,2.5064,2.5064,2.5065,2.5069,2.5068,2.507,2.5072,2.5073,2.5074,2.5077,2.5079,2.5079,2.5079,2.5079,2.5079,2.508,2.5078,2.5077,2.5077,2.5076,2.5076,2.508,2.508,2.508,2.508,0,2.5057,2.5058,2.5058,2.506,2.5061,2.5061,2.5064,2.5065,2.5067,2.5069,2.5069,2.5072,2.5073,2.5074,2.5076,2.5075,2.5075,2.5077,2.5079,2.5076,2.5076,2.5076,2.508,2.508,2.508,2.508,0,0,2.5051,2.5055,2.5055,2.5056,2.5059,2.506,2.506,2.5062,2.5062,2.5064,2.5065,2.5066,2.5068,2.5069,2.5071,2.5071,2.507,2.5073,2.5073,2.5072,2.5069,2.5068,2.5067,2.5071,2.5071,2.5071,2.5069,0,2.5048,2.5048,2.5051,2.5051,2.5052,2.5055,2.5056,2.5058,2.506,2.5061,2.5063,2.5064,2.5066,2.5067,2.5067,2.507,2.5069,2.507,2.5072,2.5072,2.5071,2.5067,2.5065,2.5063,2.5069,2.5068,2.5068,0,2.5044,2.5045,2.5045,2.5049,2.5049,2.5049,2.5051,2.5052,2.5055,2.5056,2.5058,2.506,2.5061,2.5063,2.5065,2.5065,2.5066,2.5068,2.5068,2.5068,2.507,2.5067,2.5062,2.5062,2.5068,2.5068,2.5068,0,2.5039,2.5041,2.5042,2.5042,2.5046,2.5046,2.5048,2.505,2.5052,2.5053,2.5054,2.5056,2.5057,2.5059,2.5062,2.5063,2.5063,2.5065,2.5064,2.5064,2.5064,2.5064,2.506,2.5065,2.5065,2.5065,2.5065,0,2.5035,2.5035,2.5039,2.504,2.504,2.5043,2.5043,2.5045,2.5047,2.5048,2.5051,2.5052,2.5056,2.5058,2.506,2.5061,2.5061,2.5063,2.5063,2.5062,2.5062,2.5063,2.5063,2.5065,2.5065,2.5065,2.5065,0,2.5029,2.5032,2.5033,2.5037,2.5038,2.5037,2.5041,2.5041,2.5043,2.5044,2.5045,2.5049,2.505,2.5054,2.5056,2.5058,2.5058,2.5059,2.5057,2.5058,2.5057,2.5057,2.5053,2.5052,2.5058,2.5058,2.5058,0,2.5027,2.5027,2.503,2.5031,2.5033,2.5034,2.5035,2.5038,2.5039,2.5042,2.5043,2.5045,2.5046,2.5049,2.5052,2.5054,2.5055,2.5054,2.5056,2.5055,2.5055,2.5055,2.5055,2.5053,2.5053,2.5053,2.5053,0,2.5021,2.5023,2.5024,2.5026,2.5028,2.5029,2.5031,2.5032,2.5036,2.5037,2.5039,2.504,2.5043,2.5045,2.5048,2.505,2.5052,2.5053,2.5052,2.5051,2.505,2.5051,2.5056,2.5053,2.5053,2.5053,2.5053,2.5053,2.5017,2.5017,2.502,2.5022,2.5023,2.5025,2.5026,2.5028,2.503,2.5032,2.5035,2.5036,2.5039,2.5043,2.5045,2.5046,2.5048,2.5047,2.5047,2.5047,2.5047,2.505,2.5047,2.5047,2.5047,2.5047,2.5047,0,2.5012,2.5014,2.5015,2.5018,2.5019,2.5022,2.5024,2.5025,2.5026,2.5029,2.5031,2.5033,2.5035,2.5038,2.5041,2.5041,2.5043,2.5042,2.5042,2.5042,2.5046,2.5045,2.5041,2.5041,2.5041,2.5041,2.5041,2.5041,2.5009,2.501,2.5012,2.5014,2.5016,2.5017,2.5018,2.502,2.5022,2.5025,2.5026,2.5029,2.5032,2.5034,2.5036,2.5037,2.5038,2.5037,2.5038,2.5041,2.5042,2.5043,2.5042,2.5037,2.5037,2.5035,2.5035,2.5035]}]]